Total_Precipitation_Accumulation
0.00 0.00 0.00 0.00 0.00 0.00 0.00 0.00 0.00 0.00 0.00 0.00 0.00 0.00 0.00 0.00 0.00 0.00 0.00 0.00 0.00 0.00 0.00 0.00 0.03 0.05 0.07 0.14 0.60 1.49 2.47 1.14 0.94 0.23 0.15 0.32 0.26 0.39 0.64 0.75 0.70 0.71 0.90 0.75 0.91 0.88 2.15 2.93 2.01 2.37 2.16 1.75 1.83 1.37 1.54 1.74 1.54 1.25 1.63 1.04 1.28 1.28 1.28 1.65 1.75 1.32 0.84 0.75 0.75 0.44 0.74 0.88 0.71 0.64 0.89 0.85 1.06 1.05 1.30 0.94 0.92 0.72 0.46 0.58 1.37 1.14
0.00 0.00 0.00 0.00 0.00 0.00 0.00 0.00 0.00 0.00 0.00 0.00 0.00 0.00 0.00 0.00 0.00 0.00 0.00 0.00 0.00 0.00 0.01 0.01 0.01 0.06 0.05 0.12 0.51 0.44 2.42 1.46 1.27 0.76 0.37 0.62 1.16 0.67 0.45 0.49 0.39 0.67 0.98 0.92 0.83 1.67 2.16 1.63 1.53 2.46 2.07 1.99 1.42 1.88 1.87 1.76 1.43 1.64 1.28 1.10 1.46 1.01 0.96 1.17 1.48 1.22 0.49 0.78 0.59 0.65 0.71 1.08 1.11 1.11 1.21 0.75 0.89 1.04 1.44 1.14 1.21 0.98 1.14 1.09 0.55 0.90
0.00 0.00 0.00 0.00 0.00 0.00 0.00 0.00 0.00 0.00 0.00 0.00 0.00 0.00 0.00 0.00 0.00 0.00 0.00 0.00 0.00 0.00 0.02 0.02 0.03 0.07 0.11 0.13 0.85 0.42 0.39 1.75 1.41 0.44 0.73 1.35 0.93 1.86 1.76 1.51 1.36 1.04 1.16 1.33 1.46 0.98 1.95 2.94 2.15 2.14 1.74 1.25 1.57 2.05 1.48 1.60 1.33 0.98 1.40 1.62 1.64 1.17 1.21 0.88 1.50 1.22 1.23 1.17 1.42 1.57 1.47 1.10 1.48 1.27 1.31 1.20 1.65 1.74 1.11 1.12 1.08 0.73 0.54 0.51 0.79 0.59
0.00 0.00 0.00 0.00 0.00 0.00 0.00 0.00 0.00 0.00 0.00 0.00 0.00 0.00 0.00 0.00 0.01 0.03 0.00 0.00 0.00 0.00 0.01 0.01 0.03 0.12 0.13 0.28 0.28 0.32 0.35 0.37 1.18 0.71 0.70 1.06 1.02 0.63 1.25 1.07 0.83 1.01 0.88 0.83 0.69 1.06 0.80 1.42 1.46 1.20 1.53 2.02 2.22 1.47 2.29 1.55 1.87 1.73 1.94 1.44 1.15 1.20 0.81 0.69 1.05 0.94 0.99 1.44 2.70 1.34 1.60 1.63 1.21 0.83 0.94 1.58 1.44 1.21 1.56 0.90 0.74 0.59 0.52 0.62 0.56 0.47
0.00 0.00 0.00 0.00 0.00 0.00 0.00 0.00 0.00 0.00 0.00 0.00 0.00 0.00 0.00 0.01 0.00 0.00 0.04 0.00 0.00 0.00 0.00 0.02 0.05 0.18 0.19 0.28 0.34 0.35 0.36 0.28 0.85 0.71 0.57 0.41 0.78 0.80 1.12 0.86 0.81 0.64 0.78 0.63 0.68 0.52 0.79 1.86 1.23 1.11 1.75 1.81 1.66 2.16 2.09 2.20 2.14 2.39 1.53 1.16 0.93 0.89 0.70 0.67 0.42 0.81 0.91 1.15 1.16 1.00 0.94 1.29 1.85 1.37 1.60 1.31 2.26 1.10 0.73 0.99 0.95 0.33 0.38 0.57 0.56 0.67
0.00 0.00 0.00 0.00 0.00 0.00 0.00 0.00 0.00 0.00 0.00 0.00 0.00 0.00 0.00 0.00 0.01 0.00 0.00 0.00 0.01 0.02 0.02 0.02 0.06 0.27 0.24 0.50 0.21 0.28 0.30 0.36 0.47 0.50 0.85 1.00 0.59 0.66 0.74 0.81 0.75 0.72 0.41 0.47 0.48 0.30 0.65 0.83 0.87 1.57 2.37 2.01 1.98 1.90 2.20 2.30 2.57 2.17 1.58 1.17 1.08 0.97 0.59 0.50 0.52 0.80 1.60 1.19 0.92 0.84 0.71 0.79 0.91 0.97 0.91 0.50 0.79 0.66 0.91 0.30 0.22 0.36 0.35 0.55 0.44 0.34
0.01 0.00 0.00 0.00 0.00 0.00 0.00 0.00 0.00 0.00 0.00 0.00 0.01 0.00 0.00 0.00 0.00 0.00 0.01 0.00 0.01 0.02 0.06 0.00 0.04 0.17 0.19 0.31 0.33 0.35 0.16 0.25 0.50 0.44 0.46 1.21 0.61 0.31 0.39 0.50 0.95 0.74 0.57 0.48 0.71 0.65 0.95 1.42 1.34 2.00 2.06 1.71 1.87 1.33 2.10 2.58 2.88 2.17 1.40 1.14 0.71 0.32 0.47 0.57 0.59 0.62 1.27 0.99 0.97 0.55 0.61 0.68 0.97 0.60 0.72 0.85 0.82 0.68 0.68 0.43 0.22 0.23 0.56 0.60 0.51 0.45
0.00 0.00 0.00 0.00 0.00 0.00 0.00 0.00 0.00 0.00 0.00 0.01 0.01 0.00 0.00 0.00 0.00 0.00 0.01 0.00 0.03 0.00 0.01 0.00 0.03 0.24 0.26 0.17 0.16 0.37 0.37 0.33 0.50 0.37 0.32 0.15 0.92 0.52 0.54 1.02 0.71 0.50 0.28 0.27 0.30 0.34 0.80 1.19 1.18 1.90 1.19 2.28 1.80 2.13 2.54 2.89 2.86 2.32 1.58 0.98 0.56 0.44 0.45 0.52 0.42 0.64 0.64 0.78 1.04 0.94 0.87 0.61 0.55 0.69 0.67 0.91 0.60 0.40 0.98 0.33 0.39 0.38 0.39 0.34 0.31 0.35
0.00 0.00 0.00 0.00 0.00 0.00 0.00 0.00 0.00 0.00 0.00 0.00 0.00 0.00 0.00 0.00 0.00 0.00 0.01 0.01 0.02 0.04 0.07 0.01 0.03 0.14 0.20 0.26 0.26 0.29 0.56 0.42 0.59 0.36 0.24 0.24 0.28 0.57 1.17 1.11 0.74 0.59 0.69 0.60 0.30 0.73 2.44 1.28 0.76 1.39 2.73 2.19 2.68 2.26 2.89 3.08 2.33 2.35 1.66 1.30 0.98 0.85 0.61 0.61 0.65 0.80 0.98 0.71 0.74 0.82 0.78 0.43 0.58 0.58 0.58 0.56 0.62 0.58 0.39 0.41 0.32 0.68 0.73 0.65 0.48 0.47
0.00 0.00 0.00 0.00 0.00 0.00 0.00 0.00 0.00 0.00 0.00 0.00 0.00 0.00 0.00 0.00 0.00 0.00 0.02 0.00 0.09 0.02 0.07 0.04 0.08 0.05 0.33 0.19 0.38 0.35 0.20 0.26 0.24 0.20 0.26 0.27 0.26 0.38 0.71 0.96 0.58 0.42 0.38 0.59 0.71 0.71 0.76 0.70 1.18 1.51 1.82 2.94 2.48 2.77 2.75 1.81 2.51 2.38 1.95 1.27 0.72 0.51 1.00 1.17 1.24 1.43 1.38 1.06 1.30 1.08 1.35 0.53 0.50 0.34 0.60 0.56 0.38 0.30 0.25 0.28 0.50 0.72 0.81 0.30 0.40 0.68
0.01 0.00 0.00 0.00 0.00 0.00 0.00 0.00 0.00 0.00 0.00 0.00 0.00 0.00 0.00 0.00 0.01 0.01 0.01 0.02 0.11 0.05 0.02 0.01 0.05 0.00 0.27 0.25 0.19 0.23 0.17 0.12 0.14 0.18 0.27 0.29 0.29 0.33 0.62 0.55 0.46 0.64 0.29 0.37 0.33 0.48 0.56 1.02 1.11 1.09 0.92 1.47 1.73 2.18 1.31 1.68 1.88 1.21 1.42 1.18 1.01 0.67 0.89 1.48 1.69 1.25 0.91 1.26 1.69 1.39 0.90 0.79 0.28 0.22 0.20 0.38 0.21 0.13 0.14 0.26 0.32 0.80 0.30 0.50 0.52 0.55
0.00 0.00 0.00 0.00 0.00 0.00 0.00 0.00 0.00 0.00 0.00 0.00 0.00 0.01 0.00 0.03 0.03 0.03 0.03 0.02 0.09 0.00 0.02 0.03 0.03 0.05 0.17 0.49 0.44 0.15 0.19 0.11 0.11 0.12 0.20 0.23 0.17 0.21 0.32 0.41 0.45 0.50 0.29 0.33 0.36 0.37 0.49 0.94 0.67 0.44 0.64 1.27 2.19 1.88 1.33 1.37 1.99 1.62 1.32 1.08 1.03 0.87 1.16 1.40 1.40 1.05 1.94 1.77 1.21 1.09 0.68 0.65 0.52 0.17 0.14 0.07 0.08 0.09 0.11 0.19 0.19 0.52 1.05 1.22 0.69 0.59
0.00 0.00 0.00 0.00 0.00 0.00 0.00 0.00 0.00 0.00 0.00 0.00 0.00 0.01 0.17 0.18 0.01 0.15 0.04 0.07 0.00 0.01 0.04 0.02 0.02 0.10 0.05 0.17 0.37 0.10 0.10 0.06 0.06 0.09 0.16 0.15 0.13 0.13 0.23 0.17 0.24 0.18 0.31 0.27 0.46 0.39 0.58 0.50 0.45 0.23 0.55 1.22 2.30 1.07 1.34 2.50 2.59 1.52 2.10 1.83 1.13 0.93 0.89 0.90 2.04 2.16 2.16 1.58 1.51 1.15 0.53 0.35 0.25 0.28 0.12 0.12 0.11 0.12 0.14 0.17 0.24 0.40 0.60 0.97 0.74 0.25
0.02 0.00 0.00 0.00 0.00 0.00 0.00 0.00 0.01 0.01 0.00 0.00 0.01 0.09 0.05 0.12 0.05 0.02 0.07 0.02 0.07 0.02 0.03 0.03 0.07 0.10 0.44 0.41 0.27 0.18 0.14 0.11 0.07 0.11 0.09 0.11 0.16 0.17 0.20 0.16 0.22 0.20 0.22 0.38 0.48 0.42 0.80 0.65 0.59 0.40 0.58 0.93 1.31 1.28 1.66 2.50 2.54 2.18 2.04 1.61 0.90 0.86 0.83 1.76 2.49 2.35 2.10 1.61 1.85 1.07 0.78 0.31 0.28 0.28 0.23 0.47 0.14 0.17 0.22 0.45 0.57 0.36 1.00 0.91 0.46 0.54
0.02 0.14 0.00 0.00 0.01 0.00 0.00 0.00 0.00 0.04 0.00 0.00 0.00 0.01 0.07 0.10 0.05 0.02 0.05 0.09 0.02 0.12 0.08 0.04 0.02 0.12 0.16 1.93 0.15 0.12 0.11 0.02 0.04 0.11 0.07 0.10 0.17 0.14 0.20 0.11 0.18 0.48 0.28 0.19 0.51 0.32 0.78 1.36 0.99 1.02 0.91 1.19 1.44 1.26 2.26 2.39 1.59 2.36 1.50 1.93 1.39 1.61 1.29 1.72 2.34 1.97 2.78 1.76 0.98 0.50 0.50 0.65 0.40 0.46 0.54 0.40 0.25 0.35 0.43 0.47 0.59 0.69 0.71 0.54 0.54 0.76
0.01 0.08 0.01 0.00 0.00 0.00 0.00 0.00 0.00 0.01 0.02 0.00 0.01 0.01 0.04 0.04 0.01 0.07 0.22 0.05 0.14 0.08 0.03 0.10 0.09 0.34 0.81 1.56 0.47 0.16 0.06 0.06 0.06 0.08 0.07 0.17 0.15 0.13 0.21 0.29 0.27 0.43 0.56 0.58 0.71 1.25 1.11 1.08 0.92 0.82 1.22 1.64 1.55 2.24 1.65 1.59 1.26 2.00 1.66 2.27 2.58 2.18 2.78 2.71 1.80 2.33 2.72 0.82 0.45 0.55 0.47 0.38 0.33 0.28 0.33 0.32 0.26 0.19 0.24 0.29 0.76 0.43 0.71 1.16 0.68 0.99
0.00 0.10 0.01 0.01 0.00 0.00 0.00 0.00 0.00 0.00 0.23 0.07 0.00 0.05 0.01 0.01 0.02 0.01 0.00 0.01 0.00 0.00 0.07 0.02 0.14 0.52 0.41 1.34 0.43 0.48 0.18 0.12 0.08 0.11 0.10 0.10 0.10 0.21 0.30 0.25 0.38 0.51 1.05 1.46 1.62 1.37 0.93 0.87 1.28 1.02 0.92 0.64 0.39 0.76 1.05 1.43 1.60 2.70 2.21 1.22 1.41 1.99 4.00 3.28 3.75 3.21 0.62 0.82 0.27 0.26 0.39 0.30 0.41 0.25 0.18 0.22 0.18 0.22 0.47 0.51 0.48 0.53 0.94 1.55 1.18 0.89
0.11 0.22 0.01 0.01 0.00 0.00 0.00 0.00 0.00 0.00 0.00 0.00 0.03 0.04 0.00 0.00 0.03 0.03 0.09 0.08 0.01 0.01 0.10 0.03 0.08 0.48 0.22 0.76 0.90 0.51 0.24 0.28 0.20 0.15 0.08 0.17 0.23 0.32 0.51 0.79 0.92 1.04 1.45 1.22 1.51 1.78 1.39 1.11 0.78 0.51 0.56 0.50 0.53 0.56 1.59 1.59 2.23 1.54 1.22 1.33 3.07 3.95 4.84 4.40 3.32 1.94 1.49 0.72 0.65 0.84 0.75 0.69 0.68 0.44 0.48 0.41 0.21 0.29 0.38 0.50 0.90 0.56 0.79 1.27 1.11 0.97
0.00 0.13 0.05 0.00 0.00 0.01 0.00 0.00 0.00 0.00 0.00 0.00 0.06 0.02 0.01 0.08 0.05 0.03 0.00 0.03 0.03 0.04 0.10 0.11 0.25 0.16 0.16 0.81 0.66 0.58 0.24 0.45 0.53 0.40 0.33 0.26 0.41 0.80 0.59 0.81 1.14 1.60 1.66 1.85 1.78 1.52 1.07 0.70 0.74 0.68 0.52 0.82 0.79 1.21 1.06 0.91 1.00 0.81 0.71 1.73 2.34 2.71 2.09 2.70 2.93 2.07 1.39 1.05 1.23 1.00 1.35 0.78 0.47 0.41 0.36 0.40 0.24 0.47 0.58 0.47 1.00 1.13 1.32 1.16 0.90 0.93
0.00 0.05 0.07 0.00 0.00 0.02 0.00 0.00 0.01 0.01 0.00 0.00 0.00 0.00 0.00 0.00 0.13 0.08 0.01 0.20 0.01 0.17 0.03 0.21 0.16 0.26 0.54 0.60 0.19 0.22 0.20 0.26 0.24 0.28 0.41 0.73 0.65 0.94 1.07 1.11 1.20 1.15 1.09 1.14 1.03 1.84 1.62 0.98 0.75 0.69 0.67 1.01 0.80 1.07 0.80 0.75 0.84 1.08 0.84 1.34 2.56 2.94 2.19 3.07 2.38 1.92 1.93 1.58 1.01 0.87 0.57 0.54 0.43 0.19 0.57 0.69 0.64 0.16 0.63 0.63 0.92 0.85 0.90 1.01 0.67 0.67
0.05 0.01 0.14 0.08 0.00 0.00 0.04 0.00 0.02 0.00 0.04 0.00 0.00 0.00 0.00 0.01 0.04 0.00 0.10 0.03 0.07 0.08 0.16 0.16 0.19 0.60 0.60 0.11 0.22 0.23 0.17 0.33 0.30 0.26 0.29 0.54 0.87 0.55 0.86 1.18 1.25 1.14 1.04 0.97 1.26 1.69 1.73 0.96 0.55 0.67 0.78 0.70 0.60 0.83 0.59 0.95 0.69 0.58 0.36 0.96 1.83 2.22 1.60 1.74 2.71 1.70 1.47 1.16 0.94 0.38 0.35 0.26 0.28 0.18 0.14 0.68 0.95 1.07 1.56 1.26 0.80 0.68 0.63 0.67 0.61 0.55
0.01 0.00 0.04 0.12 0.04 0.02 0.01 0.00 0.00 0.00 0.02 0.01 0.00 0.03 0.01 0.05 0.11 0.09 0.05 0.00 0.08 0.06 0.12 0.12 0.22 0.42 0.63 0.18 0.26 0.49 0.63 0.37 0.54 0.37 0.42 0.77 0.27 0.53 0.62 0.89 0.56 0.71 0.86 1.30 1.51 1.18 1.53 1.72 2.17 1.66 1.03 1.39 1.87 1.95 1.51 0.80 0.35 0.32 0.37 0.80 0.84 0.52 0.71 0.51 0.58 0.83 0.96 0.91 0.90 0.23 0.42 0.56 0.41 0.57 0.27 0.48 1.12 1.70 0.85 0.30 0.37 0.38 0.44 0.43 0.44 0.36
0.03 0.05 0.10 0.06 0.17 0.37 0.09 0.05 0.01 0.01 0.01 0.01 0.00 0.02 0.01 0.02 0.01 0.12 0.08 0.19 0.05 0.11 0.04 0.21 0.15 0.53 0.54 0.41 0.42 0.20 0.42 0.36 0.53 0.57 0.69 0.77 0.75 0.98 1.23 1.38 0.87 0.60 0.45 0.49 0.53 0.84 1.85 2.54 2.13 1.89 1.25 1.34 0.78 0.78 0.86 0.70 0.62 0.65 0.75 1.13 1.30 0.70 0.33 0.17 0.15 0.35 0.44 0.48 0.37 0.35 0.50 0.51 0.44 0.32 0.19 0.57 0.56 0.52 0.47 0.53 0.60 0.52 0.49 0.41 0.39 0.34
0.00 0.01 0.03 0.06 0.06 0.08 0.01 0.00 0.01 0.00 0.00 0.00 0.00 0.00 0.01 0.07 0.05 0.05 0.12 0.24 0.14 0.16 0.11 0.13 0.06 0.81 0.38 0.95 0.60 0.49 0.88 0.62 0.41 0.57 0.76 0.54 0.68 0.79 0.95 0.63 0.95 0.39 0.60 0.75 0.49 0.90 0.93 0.90 0.77 1.22 1.29 1.39 1.18 0.94 0.78 0.47 0.63 0.89 1.13 0.91 0.88 1.03 0.63 0.37 0.34 0.73 0.81 0.53 0.47 0.72 0.97 0.66 0.53 0.50 0.17 0.55 0.69 0.98 0.43 0.32 0.53 0.57 0.55 0.41 0.46 0.26
0.15 0.03 0.07 0.17 0.17 0.25 0.22 0.09 0.04 0.02 0.01 0.01 0.06 0.03 0.01 0.07 0.04 0.09 0.04 0.07 0.03 0.06 0.19 0.11 0.25 0.74 0.92 0.36 0.68 0.42 0.20 0.31 1.59 1.26 1.31 0.68 0.33 0.88 0.88 1.13 1.14 0.70 0.68 0.29 0.18 0.30 0.34 0.56 0.61 1.05 0.86 0.86 0.65 1.29 1.60 1.46 1.44 1.30 1.18 0.56 0.59 0.88 0.54 0.29 0.44 0.32 0.33 1.31 1.53 1.01 0.67 0.67 0.80 0.63 0.60 0.85 1.30 0.78 0.80 0.49 0.50 0.74 0.73 0.47 0.66 0.56
0.12 0.35 0.07 0.14 0.37 0.44 0.39 0.47 0.53 0.23 0.12 0.04 0.01 0.03 0.03 0.02 0.13 0.14 0.05 0.05 0.04 0.02 0.04 0.13 0.19 0.43 0.42 0.30 0.39 0.38 0.39 0.44 0.47 0.50 0.51 0.75 0.99 0.33 0.50 0.56 0.40 0.75 0.53 0.49 0.39 0.26 0.28 0.51 0.62 1.23 1.10 0.80 0.95 0.71 0.53 1.17 1.03 0.74 1.18 0.60 0.46 0.43 0.63 0.89 0.75 1.59 2.05 2.80 2.28 1.48 2.42 1.54 1.01 1.33 1.35 1.57 1.11 0.89 0.90 0.77 0.69 0.92 0.91 0.53 0.77 0.47
0.32 0.14 0.34 0.20 0.28 0.60 0.51 0.31 0.15 0.01 0.11 0.12 0.17 0.03 0.12 0.01 0.04 0.04 0.11 0.15 0.10 0.21 0.15 0.26 0.19 0.47 0.52 0.39 0.27 0.22 0.41 0.36 0.80 0.38 0.48 0.54 0.41 0.78 0.64 0.92 0.60 0.72 0.60 0.35 0.30 0.42 0.41 0.38 0.57 0.84 1.14 1.10 1.14 1.18 0.93 0.81 0.86 0.90 1.18 1.08 0.59 0.82 0.81 1.06 1.31 2.64 2.63 2.58 2.22 2.51 1.44 1.56 2.34 1.72 2.32 1.90 1.63 1.79 1.15 0.99 1.13 1.25 1.10 0.89 0.74 0.69
0.23 0.20 0.18 0.23 0.17 0.26 0.15 0.16 0.22 0.04 0.16 0.14 0.20 0.24 0.14 0.09 0.10 0.18 0.03 0.11 0.23 0.09 0.27 0.64 0.29 0.21 0.33 0.26 0.21 0.24 0.23 0.20 0.37 0.26 0.16 0.21 0.46 0.40 0.55 0.63 0.61 0.28 0.45 0.32 0.21 0.18 0.21 0.35 0.35 0.39 0.70 1.21 1.93 1.89 1.42 1.28 1.67 0.87 0.82 1.22 1.05 1.10 0.84 1.02 1.28 2.91 1.39 1.49 2.01 1.63 2.04 1.87 1.95 1.97 1.87 1.67 1.84 2.03 2.04 1.68 1.43 1.25 1.11 1.07 0.75 0.77
0.34 0.32 0.40 0.23 0.41 0.22 0.36 0.28 0.10 0.09 0.08 0.10 0.13 0.14 0.23 0.19 0.16 0.19 0.12 0.09 0.26 0.05 0.43 0.42 0.27 0.16 0.20 0.18 0.18 0.19 0.14 0.20 0.25 0.28 0.23 0.25 0.17 0.09 0.12 0.19 0.32 0.22 0.21 0.32 0.16 0.22 0.34 0.14 0.22 0.40 0.78 0.75 1.07 0.80 0.72 0.65 0.77 1.22 1.11 0.89 0.61 0.84 0.93 0.73 0.97 1.36 1.83 1.65 1.53 1.45 1.80 1.89 1.94 1.61 1.48 1.88 2.28 2.33 2.25 1.95 1.53 1.19 1.05 0.72 0.70 0.98
0.10 0.31 0.46 0.29 0.35 0.34 0.24 0.16 0.19 0.12 0.10 0.17 0.10 0.11 0.19 0.12 0.12 0.12 0.10 0.06 0.13 0.20 0.15 0.27 0.05 0.11 0.20 0.24 0.13 0.16 0.14 0.20 0.28 0.23 0.22 0.12 0.10 0.28 0.10 0.11 0.09 0.25 0.13 0.12 0.22 0.24 0.18 0.16 0.30 0.43 0.39 0.30 0.32 0.62 0.58 0.47 0.57 0.96 1.01 1.15 0.61 0.74 0.95 0.92 0.98 1.35 1.75 1.13 0.79 1.00 1.59 1.29 1.32 1.64 1.40 2.60 2.00 1.38 1.56 1.44 1.29 0.90 0.91 1.02 0.80 0.57
0.13 0.23 0.07 0.39 0.56 0.37 0.52 0.30 0.22 0.27 0.22 0.26 0.07 0.04 0.06 0.10 0.30 0.12 0.35 0.39 0.12 0.16 0.40 0.42 0.12 0.17 0.33 0.17 0.15 0.14 0.12 0.16 0.65 0.51 0.41 0.22 0.09 0.24 0.18 0.05 0.04 0.07 0.12 0.12 0.11 0.30 0.29 0.09 0.12 0.14 0.21 0.35 0.48 0.48 0.50 0.66 0.76 0.78 0.91 0.74 0.97 1.07 0.91 1.19 1.67 1.56 0.97 1.36 0.94 1.26 1.46 1.82 2.61 1.73 2.80 2.35 1.59 1.41 1.80 1.07 1.13 0.92 0.46 0.52 0.38 0.44
0.13 0.44 0.19 0.31 0.44 0.51 0.26 0.61 0.63 0.74 0.60 0.36 0.22 0.32 0.19 0.28 0.35 0.22 0.23 0.17 0.26 0.42 0.48 0.41 0.25 0.22 0.55 0.30 0.38 0.15 0.11 0.10 0.13 0.20 0.21 0.07 0.07 0.10 0.06 0.13 0.07 0.33 0.43 0.77 0.65 0.36 0.15 0.08 0.18 0.10 0.13 0.41 0.54 0.43 0.49 0.75 0.78 1.33 1.37 0.92 0.97 0.94 0.97 0.93 1.10 1.30 1.59 1.26 1.03 1.37 1.81 1.71 2.33 1.50 1.77 1.87 1.73 1.23 1.64 1.45 1.13 1.00 0.90 0.59 0.86 0.97
0.41 0.34 0.31 0.62 0.37 0.63 0.52 0.60 0.45 0.42 0.40 0.45 0.37 0.36 0.25 0.29 0.14 0.31 0.18 0.15 0.24 0.42 0.42 0.55 0.40 0.29 0.26 0.17 0.11 0.23 0.11 0.12 0.21 0.08 0.11 0.10 0.08 0.07 0.08 0.07 0.09 0.08 0.08 0.13 0.54 0.60 0.39 0.43 0.50 0.41 0.36 0.18 0.65 0.45 0.48 0.51 0.68 0.62 0.78 0.86 1.03 0.94 1.38 1.47 1.23 1.64 0.99 1.06 1.08 1.48 1.20 1.76 1.64 1.31 1.39 1.29 1.64 1.35 1.20 1.21 0.81 1.27 1.77 1.30 0.74 0.90
0.53 0.42 0.41 0.55 0.69 0.82 0.54 0.98 0.43 0.39 0.60 0.41 0.40 0.27 0.23 0.22 0.21 0.09 0.28 0.12 0.17 0.15 0.34 0.28 0.77 0.34 0.24 0.52 0.50 0.17 0.13 0.16 0.29 0.30 0.12 0.17 0.31 0.29 0.21 0.17 0.21 0.45 0.26 0.62 0.57 0.82 0.79 0.84 1.26 0.85 1.09 0.61 0.54 0.29 0.47 0.67 0.59 0.90 0.93 0.97 0.99 0.90 0.91 1.15 0.97 1.05 1.06 0.81 0.96 1.25 1.08 1.14 1.07 1.24 1.69 1.75 1.18 1.28 1.01 1.28 1.15 1.18 1.42 1.40 1.30 0.90
0.13 0.27 0.27 0.39 0.40 0.43 0.78 0.85 0.78 0.93 0.49 0.62 0.29 0.19 0.18 0.22 0.16 0.13 0.20 0.08 0.07 0.08 0.13 0.20 0.29 0.43 0.28 0.40 0.38 0.69 0.51 0.62 0.30 0.67 0.34 0.21 0.21 0.43 0.58 0.48 0.49 0.63 0.68 0.77 0.49 0.41 0.75 1.36 1.05 0.48 1.13 0.51 0.69 0.79 0.46 0.72 0.62 0.63 0.55 0.91 1.25 0.98 0.98 1.00 0.82 0.68 0.81 0.95 0.79 1.17 1.20 1.32 0.99 1.11 1.10 1.08 1.18 1.24 1.67 1.35 1.34 1.15 1.22 1.55 1.28 1.02
0.06 0.11 0.15 0.25 0.38 0.26 0.47 0.85 0.75 0.75 0.40 0.54 0.61 0.53 0.24 0.20 0.17 0.18 0.15 0.12 0.09 0.08 0.06 0.06 0.12 0.12 0.36 0.48 0.36 0.42 0.47 0.40 0.43 0.55 0.67 0.57 0.54 0.92 1.11 1.32 1.19 0.89 0.77 0.81 0.84 0.84 0.98 0.91 0.93 1.07 1.01 0.70 0.40 0.44 0.62 0.58 0.91 0.74 0.77 0.77 0.88 0.98 1.18 1.40 1.08 0.69 0.72 0.61 0.90 0.66 1.00 0.96 0.97 0.98 1.11 1.16 1.13 1.40 1.24 1.19 0.98 0.88 0.69 0.60 0.54 0.50
0.27 0.22 0.07 0.28 0.20 0.25 0.34 0.41 0.48 0.81 0.49 0.33 0.30 0.29 0.58 0.32 0.16 0.36 0.20 0.28 0.28 0.20 0.12 0.09 0.21 0.29 0.30 0.22 0.35 0.52 0.46 0.49 0.69 0.70 0.73 1.01 0.95 0.84 0.75 1.10 0.81 0.58 0.78 0.78 0.38 0.31 0.35 0.81 1.06 1.18 1.20 1.12 0.97 0.55 0.66 0.65 0.94 0.81 1.02 1.08 0.88 0.69 0.72 1.10 1.45 1.41 0.87 0.85 0.62 0.62 0.86 1.20 0.83 0.92 0.93 0.99 1.13 1.26 1.26 1.19 1.13 1.03 0.98 0.97 0.66 0.50
0.75 0.26 0.48 0.12 0.29 0.19 0.51 0.44 0.43 0.53 0.54 0.52 0.32 0.47 0.13 0.38 0.19 0.25 0.11 0.29 0.36 0.34 0.22 0.12 0.12 0.28 0.36 0.50 0.57 0.33 0.42 0.57 0.52 0.45 0.39 0.54 0.58 0.78 0.65 1.11 1.01 0.65 0.60 0.62 0.47 0.68 0.60 0.64 0.57 0.53 0.65 0.98 0.82 0.64 0.52 0.49 0.55 0.70 0.75 0.82 0.94 0.66 0.91 1.03 1.11 1.13 1.16 1.36 1.00 0.89 0.74 0.96 0.92 0.77 1.00 1.09 0.88 1.27 1.17 1.25 1.33 1.24 1.38 1.33 1.02 0.81
0.26 0.36 0.26 0.05 0.30 0.07 0.39 0.39 0.29 0.26 0.36 0.23 0.36 0.20 0.26 0.22 0.36 0.37 0.09 0.28 0.55 0.54 0.29 0.18 0.20 0.20 0.30 0.36 0.40 0.41 0.49 0.56 0.59 0.60 0.55 0.54 0.52 0.51 0.56 0.65 0.58 0.60 0.49 0.64 0.45 0.25 0.18 0.14 0.15 0.14 0.25 0.30 0.36 0.39 0.33 0.31 0.28 0.22 0.25 0.33 0.26 0.31 0.63 0.73 0.85 1.34 1.34 1.00 1.13 1.26 1.19 1.10 1.24 1.04 0.83 1.00 1.03 0.95 1.23 1.21 1.14 1.46 1.33 1.34 1.19 1.01
0.25 0.23 0.37 0.14 0.38 0.16 0.38 0.47 0.70 0.35 0.28 0.18 0.13 0.11 0.06 0.10 0.35 0.48 0.41 0.30 0.40 0.28 0.30 0.35 0.43 0.22 0.17 0.32 0.20 0.29 0.41 0.60 0.54 0.63 0.66 0.70 0.59 0.60 0.59 0.72 0.76 0.66 0.47 0.34 0.31 0.22 0.16 0.11 0.04 0.05 0.07 0.07 0.04 0.07 0.32 0.26 0.16 0.23 0.18 0.18 0.08 0.11 0.19 0.32 0.46 0.52 0.77 1.09 0.97 1.08 1.10 1.39 1.33 1.36 1.24 1.03 1.07 1.09 0.96 1.19 1.32 1.29 1.38 1.48 1.40 1.41
0.33 0.62 0.60 0.66 0.14 0.69 0.27 0.39 0.27 0.19 0.17 0.15 0.10 0.06 0.05 0.06 0.10 0.30 0.36 0.57 0.16 0.31 0.21 0.23 0.27 0.21 0.18 0.36 0.19 0.17 0.27 0.44 0.59 0.87 0.58 0.55 0.47 0.43 0.47 0.48 0.55 0.44 0.38 0.22 0.13 0.10 0.09 0.04 0.07 0.11 0.03 0.01 0.01 0.02 0.05 0.12 0.26 0.18 0.09 0.08 0.08 0.16 0.16 0.11 0.11 0.18 0.23 0.31 0.72 0.99 1.08 1.06 1.20 1.45 1.58 1.40 1.28 1.24 1.05 1.15 1.23 1.22 1.22 1.48 1.34 1.42
0.52 0.51 0.44 0.40 0.24 0.39 0.33 0.27 0.42 0.49 0.49 0.14 0.09 0.03 0.14 0.06 0.15 0.26 0.44 0.11 0.16 0.25 0.24 0.16 0.19 0.18 0.21 0.23 0.34 0.20 0.22 0.21 0.40 0.41 0.46 0.47 0.48 0.46 0.38 0.34 0.33 0.27 0.22 0.09 0.06 0.05 0.06 0.05 0.06 0.05 0.05 0.01 0.00 0.00 0.00 0.01 0.05 0.11 0.10 0.06 0.05 0.05 0.07 0.08 0.06 0.06 0.09 0.10 0.15 0.24 0.70 0.90 1.06 1.11 1.27 1.29 1.22 1.25 1.03 1.04 1.28 1.35 1.24 1.28 1.28 1.39
0.34 0.27 0.40 0.37 0.50 0.23 0.37 0.30 0.35 0.41 0.90 0.03 0.16 0.07 0.28 0.07 0.27 0.20 0.07 0.10 0.08 0.36 0.30 0.23 0.16 0.19 0.15 0.52 0.39 0.36 0.29 0.28 0.29 0.31 0.31 0.33 0.38 0.36 0.30 0.26 0.23 0.25 0.16 0.08 0.04 0.02 0.02 0.03 0.03 0.03 0.03 0.03 0.03 0.02 0.01 0.01 0.02 0.01 0.02 0.05 0.08 0.08 0.08 0.10 0.05 0.04 0.04 0.06 0.07 0.11 0.14 0.24 0.54 0.94 1.18 1.35 1.21 1.17 1.23 1.09 1.10 1.14 1.20 1.29 1.31 1.20
0.30 0.32 0.29 0.34 0.32 0.34 0.26 0.23 0.48 0.51 0.39 0.17 0.09 0.26 0.43 0.13 0.09 0.09 0.08 0.10 0.11 0.22 0.35 0.42 0.34 0.22 0.14 0.23 0.34 0.44 0.38 0.31 0.30 0.23 0.15 0.13 0.13 0.17 0.19 0.19 0.17 0.14 0.13 0.07 0.04 0.03 0.02 0.02 0.01 0.02 0.01 0.01 0.02 0.03 0.02 0.03 0.02 0.04 0.03 0.02 0.02 0.03 0.07 0.10 0.16 0.14 0.09 0.07 0.06 0.04 0.06 0.07 0.12 0.21 0.35 0.68 1.14 1.33 1.21 1.09 0.97 1.00 0.94 0.92 1.08 1.19
0.18 0.13 0.16 0.47 0.34 0.33 0.38 0.42 0.29 0.29 0.21 0.13 0.15 0.13 0.20 0.16 0.12 0.13 0.13 0.12 0.11 0.15 0.19 0.27 0.40 0.38 0.21 0.21 0.21 0.37 0.42 0.32 0.25 0.16 0.11 0.09 0.05 0.05 0.08 0.11 0.17 0.12 0.09 0.06 0.04 0.02 0.02 0.02 0.01 0.01 0.02 0.01 0.02 0.02 0.02 0.03 0.03 0.06 0.07 0.06 0.04 0.03 0.02 0.05 0.08 0.12 0.19 0.17 0.12 0.09 0.05 0.04 0.13 0.11 0.23 0.17 0.23 0.48 0.90 1.13 1.16 0.98 0.96 0.85 0.88 0.91
0.13 0.06 0.08 0.10 0.34 0.20 0.21 0.32 0.33 0.22 0.18 0.17 0.11 0.13 0.15 0.16 0.12 0.13 0.12 0.22 0.18 0.21 0.17 0.27 0.31 0.24 0.16 0.12 0.14 0.21 0.33 0.34 0.15 0.08 0.07 0.08 0.09 0.08 0.07 0.06 0.07 0.09 0.09 0.09 0.08 0.06 0.05 0.04 0.02 0.02 0.02 0.01 0.01 0.01 0.01 0.02 0.01 0.02 0.03 0.05 0.04 0.05 0.05 0.06 0.07 0.10 0.12 0.13 0.13 0.14 0.14 0.10 0.07 0.11 0.15 0.11 0.30 0.18 0.23 0.43 0.70 1.03 1.29 1.02 0.97 1.00
0.15 0.07 0.10 0.12 0.15 0.23 0.39 0.39 0.10 0.13 0.14 0.10 0.09 0.12 0.06 0.03 0.04 0.04 0.07 0.11 0.12 0.11 0.13 0.13 0.20 0.20 0.18 0.16 0.15 0.17 0.21 0.21 0.17 0.13 0.14 0.13 0.11 0.10 0.11 0.11 0.09 0.08 0.07 0.08 0.09 0.08 0.08 0.07 0.05 0.04 0.03 0.02 0.01 0.02 0.02 0.02 0.01 0.01 0.01 0.00 0.00 0.01 0.03 0.04 0.08 0.10 0.12 0.11 0.09 0.08 0.09 0.13 0.13 0.10 0.14 0.26 0.18 0.21 0.16 0.21 0.36 0.40 0.54 1.03 0.95 1.34
0.12 0.04 0.07 0.07 0.18 0.14 0.31 0.27 0.06 0.05 0.03 0.02 0.01 0.06 0.04 0.03 0.03 0.01 0.01 0.02 0.05 0.10 0.14 0.16 0.14 0.15 0.13 0.14 0.15 0.19 0.21 0.19 0.18 0.16 0.15 0.16 0.16 0.18 0.19 0.16 0.14 0.14 0.13 0.12 0.10 0.08 0.07 0.07 0.07 0.06 0.05 0.04 0.02 0.01 0.01 0.01 0.02 0.02 0.02 0.02 0.02 0.01 0.01 0.01 0.01 0.03 0.05 0.05 0.05 0.06 0.07 0.09 0.10 0.13 0.13 0.11 0.12 0.17 0.17 0.31 0.24 0.30 0.26 0.32 0.43 0.58
0.15 0.02 0.04 0.06 0.08 0.15 0.10 0.08 0.04 0.08 0.02 0.01 0.01 0.03 0.04 0.01 0.00 0.01 0.02 0.03 0.02 0.04 0.05 0.08 0.11 0.16 0.18 0.19 0.15 0.16 0.21 0.22 0.20 0.20 0.18 0.13 0.13 0.17 0.16 0.13 0.15 0.14 0.13 0.15 0.14 0.12 0.10 0.08 0.06 0.05 0.05 0.04 0.02 0.02 0.02 0.02 0.00 0.01 0.00 0.01 0.01 0.02 0.03 0.03 0.02 0.01 0.01 0.02 0.02 0.04 0.04 0.04 0.05 0.07 0.08 0.11 0.09 0.08 0.14 0.25 0.16 0.19 0.22 0.34 0.36 0.46
0.04 0.08 0.03 0.02 0.10 0.16 0.30 0.33 0.08 0.17 0.13 0.14 0.02 0.02 0.03 0.03 0.04 0.07 0.04 0.02 0.03 0.04 0.06 0.08 0.10 0.10 0.11 0.13 0.17 0.19 0.24 0.22 0.19 0.18 0.18 0.12 0.11 0.09 0.08 0.07 0.09 0.13 0.08 0.07 0.08 0.08 0.08 0.08 0.06 0.06 0.07 0.05 0.08 0.02 0.03 0.01 0.00 0.02 0.01 0.00 0.00 0.00 0.01 0.01 0.01 0.03 0.03 0.04 0.02 0.02 0.02 0.03 0.03 0.08 0.22 0.08 0.06 0.08 0.05 0.04 0.06 0.11 0.09 0.30 0.18 0.19
0.10 0.16 0.09 0.09 0.11 0.21 0.11 0.02 0.04 0.09 0.12 0.20 0.11 0.03 0.01 0.01 0.03 0.03 0.03 0.04 0.05 0.05 0.11 0.07 0.08 0.05 0.05 0.08 0.06 0.05 0.05 0.06 0.10 0.12 0.13 0.11 0.06 0.10 0.08 0.11 0.13 0.13 0.12 0.06 0.08 0.10 0.11 0.09 0.07 0.05 0.04 0.03 0.02 0.02 0.02 0.02 0.00 0.01 0.01 0.01 0.01 0.01 0.01 0.00 0.01 0.01 0.01 0.01 0.03 0.03 0.03 0.03 0.02 0.03 0.03 0.05 0.05 0.05 0.07 0.10 0.05 0.03 0.03 0.07 0.08 0.10